Weather Roundup
Issued by NWS Chicago, IL

Home | Current Version | Previous Version | Text Only | Print | Product List | Glossary Off
Versions: 1 2 3 4 5 6 7 8 9 10 11 12 13 14 15 16 17 18 19 20 21 22 23 24 25 26 27 28 29 30 31 32 33 34 35 36 37 38 39 40 41 42 43 44 45 46 47 48 49 50

000
NZUS59 KLOT 220608
HRRLOT

CHICAGO AREA WEATHER ROUNDUP
NATIONAL WEATHER SERVICE CHICAGO/ROMEOVILLE IL
1200 AM CST SUN JAN 22 2017

NOTE: "FAIR" INDICATES FEW OR NO CLOUDS BELOW 12,000 FEET WITH NO
SIGNIFICANT WEATHER AND/OR OBSTRUCTIONS TO VISIBILITY.

* THESE STATIONS ARE NOT UNDER NWS QUALITY CONTROL. THEY ALSO MAY NOT
  REPORT WEATHER SUCH AS PRECIPITATION OR FOG.

ILZ005-006-012>014-019>023-220700-
NORTHEAST ILLINOIS

CITY           SKY/WX    TMP DP  RH WIND       PRES   REMARKS
OHARE          FOG       42  42 100 NW6       29.59S VSB 1/2
6HR MIN TEMP:  40; 6HR MAX TEMP:  51;

MIDWAY         FOG       40  38  93 NW7       29.60R VSB 1/4
6HR MIN TEMP:  40; 6HR MAX TEMP:  53;

AURORA         FOG       41  39  93 CALM      29.60S VSB 1/4
6HR MIN TEMP:  37; 6HR MAX TEMP:  47;

LANSING*       FOG       37  37 100 CALM      29.59F VSB 1/4
JOLIET*        FOG       41  41 100 N3        29.61S VSB<1/4
WAUKEGAN       FOG       42  41  96 W6        29.58F VSB 1
6HR MIN TEMP:  39; 6HR MAX TEMP:  47;

DUPAGE AIRPORT FOG       42  41  96 CALM      29.59F VSB 1/4
6HR MIN TEMP:  39; 6HR MAX TEMP:  46;

WHEELING       FOG       42  41  96 NW3       29.60F VSB 3/4
6HR MIN TEMP:  40; 6HR MAX TEMP:  51;

KANKAKEE*      PTCLDY    38  37  98 CALM      29.60S
MORRIS*        FOG       37  36  98 CALM      29.60S VSB 1/4
LEWIS AIRPORT* DRZL/FOG  40  40 100 N7        29.60S VSB 1/4
NORTHERLY ISL    N/A     39  35  86 NE3         N/A
$$

WIZ051-052-058>065-066-070>072-220700-
SOUTHEAST WISCONSIN

CITY           SKY/WX    TMP DP  RH WIND       PRES   REMARKS
MILWAUKEE      MOCLDY    44  39  82 SW7       29.58F
6HR MIN TEMP:  43; 6HR MAX TEMP:  49;

KENOSHA*       CLOUDY    40  39  97 W6        29.58F FOG
RACINE*        CLOUDY    42  39  89 W6        29.60S
WAUKESHA       CLOUDY    36  36 100 CALM      29.58F FOG
WEST BEND      CLOUDY    41  41 100 SW6       29.57S
$$

INZ001>003-010>013-019-020-220700-
NORTHWEST INDIANA

CITY           SKY/WX    TMP DP  RH WIND       PRES   REMARKS
GARY*          FOG       35  35 100 CALM      29.59F VSB 1/2
6HR MIN TEMP:  35; 6HR MAX TEMP:  51;

MICHIGAN CITY* NOT AVBL
RENSSELAER*    NOT AVBL
VALPARAISO     FOG       40  39  97 CALM      29.60S VSB 1/4
$$

LMZ740>746-220700-
SOUTHERN LAKE MICHIGAN

STATION/POSITION TIME  SKY/WX   TEMP WIND        PRES    VSBY
                                AIR  DIR/SP/G
                 (UTC)          (F)  (DEG/KT/KT) (MB)    (MI)
HARRISON CRIB    0540            37  350/ 14/ 14   N/A
BURNHAM HARBOR   0600            36   60/  3/  7   N/A
CALUMET HARBOR   0542            43  190/  2/  3 1001.5F
BURNS HARBOR     0540            49  200/  3/  3 1002.7F
MICHIGAN CITY    0540            49  170/  3/  3   N/A
$$

ABBREVIATIONS USED IN REMARKS
   TC - TEMPERATURE IN CELSIUS
  WCI - WIND CHILL INDEX
   HX - HEAT INDEX
  VSB - VISIBILITY
$$




USA.gov is the U.S. government's official web portal to all federal, state and local government web resources and services.